GW4756 Weather Reports


time (UTC)temp
C
wind
direction
speed
KPH
gust
KPH
rain 1hr
cm
rain 24hr
cm
rain mn
cm
humidity
%
barometer
mb
20260510162340 25 358 1.6 12.9 0.00 0.00 0.00 44 1014.8
20260510161840 25 13 1.6 4.8 0.00 0.00 0.00 43 1014.8
20260510161340 25 351 0.0 6.4 0.00 0.00 0.00 46 1014.9
20260510160840 25 230 1.6 11.3 0.00 0.00 0.00 44 1014.8
20260510160340 25 323 0.0 11.3 0.00 0.00 0.00 45 1014.9
20260510160106 25 352 0.0 6.4 0.00 0.00 0.00 52 1015.0
20260510155559 25 255 3.2 4.8 0.00 0.00 0.00 55 1015.1
20260510154840 24 276 1.6 4.8 0.00 0.00 0.00 57 1015.4
20260510154340 24 262 1.6 6.4 0.00 0.00 0.00 55 1015.3
20260510153340 24 246 0.0 4.8 0.00 0.00 0.00 57 1015.3
20260510153107 24 246 3.2 6.4 0.00 0.00 0.00 55 1015.5
20260510152340 23 259 3.2 12.9 0.00 0.00 0.00 59 1015.5
20260510151840 23 268 4.8 12.9 0.00 0.00 0.00 57 1015.2
20260510151340 23 333 3.2 9.7 0.00 0.00 0.00 58 1015.2
20260510150840 23 32 1.6 6.4 0.00 0.00 0.00 59 1015.0
20260510150340 23 84 0.0 6.4 0.00 0.00 0.00 60 1015.3
20260510145840 22 116 3.2 4.8 0.00 0.00 0.00 62 1015.1
20260510145340 22 211 3.2 6.4 0.00 0.00 0.00 62 1015.1
20260510145100 22 69 1.6 6.4 0.00 0.00 0.00 62 1015.4
20260510144558 22 125 1.6 11.3 0.00 0.00 0.00 62 1015.1
20260510143840 22 275 3.2 11.3 0.00 0.00 0.00 64 1015.2
20260510143341 22 43 1.6 9.7 0.00 0.00 0.00 65 1015.2
20260510142840 22 260 1.6 6.4 0.00 0.00 0.00 64 1015.0
20260510142340 22 271 0.0 6.4 0.00 0.00 0.00 67 1015.0
20260510141840 21 258 3.2 6.4 0.00 0.00 0.00 68 1015.1
20260510141340 21 261 6.4 6.4 0.00 0.00 0.00 69 1015.1
20260510140840 21 338 3.2 4.8 0.00 0.00 0.00 69 1015.1
20260510140340 21 337 1.6 6.4 0.00 0.00 0.00 69 1015.0
20260510135840 21 346 1.6 6.4 0.00 0.00 0.00 70 1015.3
20260510135340 21 307 1.6 6.4 0.00 0.00 0.00 72 1015.2
20260510134853 21 328 1.6 6.4 0.00 0.00 0.00 71 1015.1
20260510133840 21 351 1.6 9.7 0.00 0.00 0.00 73 1014.9
20260510133340 20 253 3.2 9.7 0.00 0.00 0.00 77 1014.8
20260510132840 20 329 1.6 12.9 0.00 0.00 0.00 77 1014.9
20260510132604 20 283 6.4 12.9 0.00 0.00 0.00 77 1015.0
20260510131840 20 311 3.2 6.4 0.00 0.00 0.00 79 1015.1
20260510131340 20 260 3.2 4.8 0.00 0.00 0.00 80 1015.1
20260510130840 19 38 1.6 4.8 0.00 0.00 0.00 80 1014.8
20260510130340 19 343 3.2 4.8 0.00 0.00 0.00 87 1014.7
20260510125840 18 327 1.6 4.8 0.00 0.00 0.00 89 1014.5
20260510125611 18 23 1.6 4.8 0.00 0.00 0.00 90 1014.4
20260510124840 18 16 3.2 4.8 0.00 0.00 0.00 91 1014.5
20260510124610 18 271 1.6 4.8 0.00 0.00 0.00 91 1014.6
20260510123840 17 325 0.0 3.2 0.00 0.00 0.00 92 1014.3
20260510123341 17 315 0.0 6.4 0.00 0.00 0.00 92 1014.3
20260510122839 17 249 0.0 6.4 0.00 0.00 0.00 92 1014.6
20260510122340 17 265 0.0 4.8 0.00 0.00 0.00 92 1014.4
20260510122103 17 277 1.6 4.8 0.00 0.00 0.00 93 1014.3
20260510121340 17 255 1.6 3.2 0.00 0.00 0.00 93 1014.4
20260510120840 17 263 1.6 4.8 0.00 0.00 0.00 93 1014.3
20260510120340 17 265 3.2 4.8 0.00 0.00 0.00 93 1014.4
20260510115840 17 263 3.2 9.7 0.00 0.00 0.00 93 1014.6
20260510115603 16 261 4.8 9.7 0.00 0.00 0.00 93 1014.1
20260510114840 16 268 3.2 9.7 0.00 0.00 0.00 93 1014.4
20260510114340 16 274 4.8 6.4 0.00 0.00 0.00 93 1014.3
20260510113840 16 268 3.2 6.4 0.00 0.00 0.00 93 1014.0
20260510113340 16 263 4.8 4.8 0.00 0.00 0.00 93 1014.0
20260510113103 16 266 3.2 3.2 0.00 0.00 0.00 93 1014.1
20260510112340 16 257 1.6 3.2 0.00 0.00 0.00 93 1014.0
20260510111840 16 257 0.0 1.6 0.00 0.00 0.00 93 1013.7
20260510111340 16 257 0.0 1.6 0.00 0.00 0.00 93 1013.7
20260510111059 16 257 0.0 0.0 0.00 0.00 0.00 92 1013.6
20260510110340 16 257 0.0 1.6 0.00 0.00 0.00 92 1013.5
20260510105840 16 257 0.0 1.6 0.00 0.00 0.00 92 1013.5
20260510105339 16 257 1.6 1.6 0.00 0.00 0.00 92 1013.4
20260510104840 16 263 0.0 3.2 0.00 0.00 0.00 92 1013.5
20260510104602 16 256 1.6 3.2 0.00 0.00 0.00 92 1013.5
20260510103840 16 255 0.0 0.0 0.00 0.00 0.00 92 1013.5
20260510103340 16 254 0.0 0.0 0.00 0.00 0.00 92 1013.3
20260510102840 16 254 0.0 1.6 0.00 0.00 0.00 92 1013.1
20260510102559 16 254 0.0 3.2 0.00 0.00 0.00 92 1013.0
20260510101840 16 255 1.6 6.4 0.00 0.00 0.00 92 1012.6
20260510100839 16 261 3.2 9.7 0.00 0.00 0.00 91 1012.7
20260510100340 16 268 4.8 9.7 0.00 0.00 0.00 91 1012.7
20260510095839 16 264 3.2 6.4 0.00 0.00 0.00 91 1012.4
20260510095341 16 271 4.8 6.4 0.00 0.00 0.00 91 1012.6
20260510094340 16 263 3.2 6.4 0.00 0.00 0.00 91 1012.5
20260510093840 16 267 1.6 6.4 0.00 0.00 0.00 91 1012.3
20260510093340 16 267 1.6 6.4 0.00 0.00 0.00 91 1012.3
20260510092840 16 270 4.8 4.8 0.00 0.00 0.00 91 1012.5
20260510092340 16 251 1.6 4.8 0.00 0.00 0.00 91 1012.2
20260510092058 16 251 1.6 4.8 0.00 0.00 0.00 91 1012.2
20260510091340 16 265 1.6 4.8 0.00 0.00 0.00 90 1012.2
20260510090840 16 259 1.6 3.2 0.00 0.00 0.00 90 1012.0
20260510090340 16 259 1.6 6.4 0.00 0.00 0.00 90 1012.1
20260510085840 16 260 3.2 3.2 0.00 0.00 0.00 90 1012.3
20260510085340 16 260 1.6 3.2 0.00 0.00 0.00 90 1012.1
20260510084840 16 260 1.6 1.6 0.00 0.00 0.00 90 1012.0
20260510084556 16 260 0.0 0.0 0.00 0.00 0.00 90 1011.8
20260510083556 16 260 0.0 1.6 0.00 0.00 0.00 90 1011.9
20260510083106 16 260 0.0 4.8 0.00 0.00 0.00 90 1011.6
20260510082340 16 269 0.0 1.6 0.00 0.00 0.00 90 1011.9
20260510081840 16 256 0.0 0.0 0.00 0.00 0.00 90 1011.7
20260510081340 16 256 0.0 1.6 0.00 0.00 0.00 90 1011.7
20260510080606 17 256 0.0 3.2 0.00 0.00 0.00 89 1011.7
20260510080100 17 263 0.0 3.2 0.00 0.00 0.00 89 1011.7
20260510075338 17 263 1.6 4.8 0.00 0.00 0.00 89 1011.7
20260510074839 17 269 1.6 4.8 0.00 0.00 0.00 89 1011.7
20260510074338 17 261 1.6 4.8 0.00 0.00 0.00 89 1011.7
20260510073838 17 268 3.2 3.2 0.00 0.00 0.00 89 1011.6
20260510073338 17 268 1.6 4.8 0.00 0.00 0.00 89 1011.6
20260510072838 17 263 1.6 4.8 0.00 0.00 0.00 89 1011.7
20260510072338 17 263 1.6 4.8 0.00 0.00 0.00 89 1011.4
20260510071838 17 263 1.6 4.8 0.00 0.00 0.00 89 1011.3
20260510071338 17 265 1.6 3.2 0.00 0.00 0.00 89 1011.5
20260510070838 17 266 3.2 3.2 0.00 0.00 0.00 89 1011.8
20260510070338 16 263 1.6 1.6 0.00 0.00 0.00 89 1011.7
20260510065837 16 263 1.6 1.6 0.00 0.00 0.00 89 1011.7
20260510065337 16 263 1.6 3.2 0.00 0.00 0.00 89 1011.6
20260510064837 16 263 1.6 3.2 0.00 0.00 0.00 89 1011.7
20260510064337 17 263 0.0 0.0 0.00 0.00 0.00 89 1011.8
20260510063837 17 263 0.0 0.0 0.00 0.00 0.00 89 1011.5
20260510063337 17 263 0.0 0.0 0.00 0.00 0.00 89 1011.6
20260510062837 17 263 0.0 0.0 0.00 0.00 0.00 89 1011.5
20260510062337 17 263 0.0 1.6 0.00 0.00 0.00 89 1011.2
20260510061837 17 263 0.0 4.8 0.00 0.00 0.00 89 1011.4
20260510061338 17 263 1.6 4.8 0.00 0.00 0.00 88 1011.4
20260510060837 17 275 3.2 4.8 0.00 0.00 0.00 88 1011.5
20260510060337 17 275 3.2 4.8 0.00 0.00 0.00 88 1011.5
20260510055837 17 268 0.0 3.2 0.00 0.00 0.00 88 1011.5
20260510055337 17 267 1.6 4.8 0.00 0.00 0.00 88 1011.5
20260510054837 17 267 1.6 4.8 0.00 0.00 0.00 88 1011.8
20260510054337 17 246 0.0 3.2 0.00 0.00 0.00 88 1011.8
20260510053337 17 240 1.6 3.2 0.00 0.00 0.00 88 1011.9
20260510052837 17 239 1.6 4.8 0.00 0.00 0.00 89 1012.0
20260510052558 17 231 1.6 4.8 0.00 0.00 0.00 88 1011.9
20260510051837 17 254 1.6 4.8 0.00 0.00 0.00 88 1012.0
20260510051337 17 268 1.6 4.8 0.00 0.00 0.00 88 1012.1
20260510050838 17 275 3.2 4.8 0.00 0.00 0.00 88 1011.9
20260510050337 17 278 3.2 4.8 0.00 0.00 0.00 88 1011.9
20260510045837 17 250 1.6 4.8 0.00 0.00 0.00 88 1012.3
20260510045101 17 253 1.6 3.2 0.00 0.00 0.00 88 1012.2
20260510044337 17 254 1.6 3.2 0.00 0.00 0.00 88 1012.2
20260510043837 17 254 1.6 3.2 0.00 0.00 0.00 88 1012.1
20260510043602 17 254 1.6 3.2 0.00 0.00 0.00 87 1012.2
20260510042837 17 253 1.6 3.2 0.00 0.00 0.00 87 1012.1
20260510042337 17 253 1.6 3.2 0.00 0.00 0.00 87 1012.0
20260510041837 17 253 1.6 3.2 0.00 0.00 0.00 87 1012.0
20260510041558 17 253 1.6 3.2 0.00 0.00 0.00 87 1012.2
20260510041102 17 253 1.6 3.2 0.00 0.00 0.00 87 1012.1
20260510040337 17 254 1.6 3.2 0.00 0.00 0.00 87 1012.1
20260510035837 17 253 1.6 3.2 0.00 0.00 0.00 86 1011.9
20260510035337 17 254 1.6 3.2 0.00 0.00 0.00 86 1012.0
20260510034837 18 253 1.6 3.2 0.00 0.00 0.00 86 1011.9
20260510034337 18 253 0.0 3.2 0.00 0.00 0.00 86 1011.9
20260510033837 18 253 1.6 3.2 0.00 0.00 0.00 86 1012.0
20260510033337 18 253 1.6 3.2 0.00 0.00 0.00 86 1012.1
20260510032838 18 261 1.6 3.2 0.00 0.00 0.00 86 1011.9
20260510032337 18 259 1.6 3.2 0.00 0.00 0.00 85 1011.7
20260510032100 18 257 1.6 3.2 0.00 0.00 0.00 85 1011.6
20260510031337 18 254 1.6 3.2 0.00 0.00 0.00 85 1011.7
20260510030837 18 254 1.6 4.8 0.00 0.00 0.00 85 1011.8
20260510030337 18 255 1.6 4.8 0.00 0.00 0.00 85 1011.6
20260510025837 18 262 3.2 4.8 0.00 0.00 0.00 85 1011.6
20260510025337 18 264 3.2 4.8 0.00 0.00 0.00 85 1011.7
20260510024836 18 264 1.6 4.8 0.00 0.00 0.00 84 1011.6
20260510024602 18 269 3.2 3.2 0.00 0.00 0.00 84 1011.7
20260510023603 18 269 1.6 3.2 0.00 0.00 0.00 84 1011.6
20260510022837 18 269 1.6 3.2 0.00 0.00 0.00 84 1011.6
20260510022337 18 269 1.6 3.2 0.00 0.00 0.00 84 1011.7
20260510021837 18 269 1.6 3.2 0.00 0.00 0.00 84 1011.5
20260510021337 18 269 1.6 3.2 0.00 0.00 0.00 84 1011.6
20260510020837 18 251 0.0 1.6 0.00 0.00 0.00 84 1011.6
20260510020337 18 251 0.0 3.2 0.00 0.00 0.00 84 1011.4
20260510015837 18 251 0.0 3.2 0.00 0.00 0.00 83 1011.5
20260510015337 18 250 1.6 1.6 0.00 0.00 0.00 83 1011.4
20260510014837 18 250 0.0 0.0 0.00 0.00 0.00 83 1011.3
20260510014337 18 249 0.0 0.0 0.00 0.00 0.00 83 1011.2
20260510013837 18 249 0.0 0.0 0.00 0.00 0.00 83 1011.0
20260510013337 18 249 0.0 0.0 0.00 0.00 0.00 83 1010.9
20260510012837 18 249 0.0 0.0 0.00 0.00 0.00 83 1010.9
20260510011837 18 249 0.0 0.0 0.00 0.00 0.00 82 1010.7
20260510011337 18 249 0.0 0.0 0.00 0.00 0.00 81 1010.8
20260510010837 18 249 0.0 0.0 0.00 0.00 0.00 81 1010.9
20260510010337 19 249 0.0 0.0 0.00 0.00 0.00 80 1010.7
20260510005337 19 249 0.0 0.0 0.00 0.00 0.00 80 1010.7
20260510004837 19 249 0.0 0.0 0.00 0.00 0.00 78 1010.6
20260510004337 20 249 0.0 0.0 0.00 0.00 0.00 78 1010.5
20260510003837 20 249 0.0 0.0 0.00 0.00 0.00 77 1010.5
20260510003555 20 249 0.0 0.0 0.00 0.00 0.00 77 1010.5
20260510002837 20 249 0.0 0.0 0.00 0.00 0.00 76 1010.4
20260510002337 20 249 0.0 0.0 0.00 0.00 0.00 76 1010.6
20260510001837 20 249 0.0 0.0 0.00 0.00 0.00 76 1010.5
20260510001337 20 249 0.0 0.0 0.00 0.00 0.00 75 1010.7
20260510000837 21 249 0.0 0.0 0.00 0.00 0.00 75 1010.4
20260510000337 21 249 0.0 0.0 0.00 0.00 0.00 75 1010.3
20260509235837 21 249 0.0 0.0 0.00 0.00 0.00 74 1010.3
20260509235337 21 249 0.0 0.0 0.00 0.00 0.00 74 1010.3
20260509234337 21 249 0.0 3.2 0.00 0.00 0.00 73 1010.1
20260509233837 21 249 0.0 3.2 0.00 0.00 0.00 73 1009.9
20260509233336 21 249 0.0 4.8 0.00 0.00 0.00 72 1009.8
20260509232837 21 249 1.6 4.8 0.00 0.00 0.00 72 1009.9
20260509232337 21 249 1.6 4.8 0.00 0.00 0.00 72 1010.0
20260509231837 21 269 3.2 4.8 0.00 0.00 0.00 72 1009.8
20260509231337 21 262 0.0 4.8 0.00 0.00 0.00 72 1009.8
20260509230837 21 269 1.6 4.8 0.00 0.00 0.00 72 1010.0
20260509230337 22 235 3.2 4.8 0.00 0.00 0.00 71 1009.8
20260509225837 22 245 0.0 4.8 0.00 0.00 0.00 71 1009.8
20260509225337 22 255 0.0 6.4 0.00 0.00 0.00 71 1009.6
20260509224837 22 262 3.2 6.4 0.00 0.00 0.00 71 1009.5
20260509224338 22 276 0.0 4.8 0.00 0.00 0.00 71 1009.6
20260509223837 22 90 1.6 3.2 0.00 0.00 0.00 71 1009.6
20260509223337 22 149 0.0 6.4 0.00 0.00 0.00 70 1009.7
20260509222837 22 262 0.0 6.4 0.00 0.00 0.00 70 1010.0
20260509222336 22 281 4.8 6.4 0.00 0.00 0.00 70 1009.9
20260509221836 22 264 3.2 6.4 0.00 0.00 0.00 70 1009.9
20260509221337 22 291 4.8 6.4 0.00 0.00 0.00 70 1010.0
20260509220837 22 269 0.0 9.7 0.00 0.00 0.00 70 1010.0
20260509220337 22 273 4.8 9.7 0.00 0.00 0.00 71 1009.9
20260509215837 22 225 3.2 9.7 0.00 0.00 0.00 70 1010.0
20260509215337 22 257 3.2 6.4 0.00 0.00 0.00 71 1009.8
20260509214837 22 305 3.2 6.4 0.00 0.00 0.00 70 1009.8
20260509214337 22 75 0.0 6.4 0.00 0.00 0.00 70 1009.8
20260509213836 22 264 0.0 6.4 0.00 0.00 0.00 70 1009.8
20260509213555 22 271 0.0 6.4 0.00 0.00 0.00 70 1009.8
20260509213101 22 349 3.2 14.5 0.00 0.00 0.00 70 1009.7
20260509212337 22 254 0.0 17.7 0.00 0.00 0.00 69 1009.7
20260509211837 22 244 3.2 17.7 0.00 0.00 0.00 69 1009.5
20260509211337 22 260 1.6 11.3 0.00 0.00 0.00 70 1009.5
20260509210337 21 279 0.0 9.7 0.00 0.00 0.00 69 1009.5
20260509205838 21 274 1.6 11.3 0.00 0.00 0.00 69 1009.7
20260509205338 21 240 4.8 11.3 0.00 0.00 0.00 69 1009.6
20260509205059 21 263 0.0 11.3 0.00 0.00 0.00 69 1009.9
20260509204337 21 265 0.0 9.7 0.00 0.00 0.00 70 1009.7
20260509203837 21 268 6.4 9.7 0.00 0.00 0.00 69 1009.5
20260509203337 21 253 4.8 6.4 0.00 0.00 0.00 69 1009.6
20260509202837 21 261 3.2 6.4 0.00 0.00 0.00 69 1009.8
20260509202336 21 19 1.6 6.4 0.00 0.00 0.00 69 1009.7
20260509201836 21 25 1.6 4.8 0.00 0.00 0.00 69 1009.6
20260509201601 21 289 1.6 9.7 0.00 0.00 0.00 69 1009.7
20260509200837 21 123 1.6 9.7 0.00 0.00 0.00 68 1010.0
20260509200337 21 57 1.6 4.8 0.00 0.00 0.00 68 1009.9
20260509195837 21 195 1.6 9.7 0.00 0.00 0.00 68 1009.9
20260509195337 21 54 1.6 9.7 0.00 0.00 0.00 67 1009.9
20260509194837 21 261 1.6 4.8 0.00 0.00 0.00 67 1010.1
20260509194602 21 219 0.0 4.8 0.00 0.00 0.00 66 1010.2
20260509193837 21 203 3.2 14.5 0.00 0.00 0.00 66 1010.1
20260509193337 21 305 0.0 14.5 0.00 0.00 0.00 65 1010.1
20260509192837 22 238 4.8 11.3 0.00 0.00 0.00 64 1010.3
20260509192601 22 238 1.6 11.3 0.00 0.00 0.00 63 1010.3
20260509191837 22 267 4.8 9.7 0.00 0.00 0.00 62 1010.4
20260509191559 22 307 1.6 6.4 0.00 0.00 0.00 61 1010.1
20260509190837 23 259 1.6 9.7 0.00 0.00 0.00 60 1010.1
20260509190337 23 247 1.6 17.7 0.00 0.00 0.00 60 1010.1
20260509185838 23 272 4.8 17.7 0.00 0.00 0.00 59 1010.3
20260509184836 24 124 6.4 12.9 0.00 0.00 0.00 56 1010.2
20260509184338 23 297 6.4 12.9 0.00 0.00 0.00 59 1010.3
20260509183837 23 292 3.2 16.1 0.00 0.00 0.00 58 1010.1
20260509183337 23 193 4.8 16.1 0.00 0.00 0.00 58 1010.1
20260509182837 23 70 1.6 11.3 0.00 0.00 0.00 60 1010.2
20260509182337 22 211 0.0 11.3 0.00 0.00 0.00 59 1010.3
20260509181837 22 242 1.6 9.7 0.00 0.00 0.00 59 1010.6
20260509181337 22 116 1.6 9.7 0.00 0.00 0.00 58 1010.7
20260509181059 22 244 1.6 6.4 0.00 0.00 0.00 59 1010.8
20260509180337 22 33 0.0 12.9 0.00 0.00 0.00 57 1010.8
20260509175837 22 168 3.2 12.9 0.00 0.00 0.00 57 1010.9
20260509175628 22 103 3.2 6.4 0.00 0.00 0.00 56 1011.1
20260509174837 22 228 3.2 9.7 0.00 0.00 0.00 57 1011.1
20260509174336 22 358 3.2 9.7 0.00 0.00 0.00 58 1011.0
20260509174105 22 253 1.6 4.8 0.00 0.00 0.00 58 1010.8
20260509173557 22 103 1.6 9.7 0.00 0.00 0.00 57 1011.0
20260509172837 22 155 1.6 9.7 0.00 0.00 0.00 60 1011.3
20260509172337 21 269 0.0 11.3 0.00 0.00 0.00 60 1011.1
20260509172102 21 312 6.4 11.3 0.00 0.00 0.00 58 1011.3
20260509171336 22 98 3.2 12.9 0.00 0.00 0.00 57 1011.3
20260509170836 22 101 3.2 14.5 0.00 0.00 0.00 57 1011.5
20260509170336 22 282 0.0 14.5 0.00 0.00 0.00 58 1011.5
20260509165836 22 44 3.2 6.4 0.00 0.00 0.00 57 1011.5
20260509165335 22 179 3.2 9.7 0.00 0.00 0.00 57 1011.7
20260509164835 22 55 3.2 9.7 0.00 0.00 0.00 59 1011.8
20260509164335 21 267 6.4 9.7 0.00 0.00 0.00 60 1011.7
20260509163835 21 296 1.6 9.7 0.00 0.00 0.00 60 1011.7
20260509163336 22 63 1.6 6.4 0.00 0.00 0.00 58 1011.9
20260509162836 22 14 3.2 9.7 0.00 0.00 0.00 60 1011.6